Regional Weather Roundup
Issued by NWS State College, PA

Home | Current Version | Previous Version | Text Only | Print | Product List | Glossary On
Versions: 1 2 3 4 5 6 7 8 9 10 11 12 13 14 15 16 17 18 19 20 21 22 23 24 25 26 27 28 29 30 31 32 33 34 35 36 37 38 39 40 41 42 43 44 45 46 47 48 49 50
000
ASUS41 KCTP 261803
RWRCTP

REGIONAL WEATHER ROUNDUP
NATIONAL WEATHER SERVICE STATE COLLEGE PA
200 PM EDT MON SEP 26 2016

Note: "fair" indicates few or no clouds below 12,000 feet with no
significant weather and/or obstructions to visibility.

* = STATION THAT DOES NOT REPORT PRECIPITATION /E.G. RAIN...SNOW...ETC/
    THUNDER OR FOG.

PAZ002>004-007>009-013>016-020>023-029>032-261900-
WESTERN PENNSYLVANIA

CITY           SKY/WX    TMP DP  RH WIND       PRES   REMARKS
ERIE           LGT RAIN  64  61  90 S9        29.90F
MEADVILLE      LGT RAIN  61  57  87 S6        29.95F
FRANKLIN*        N/A     63  55  77 W9        29.98F
NEW CASTLE     CLOUDY    67  59  75 S3        29.97F
BEAVER COUNTY  CLOUDY    68  59  73 NW5       29.98S
BUTLER*        CLOUDY    68  57  68 NW7G16    29.99S
PITTSBURGH INT CLOUDY    73  61  65 NW15      29.95S
PITTSBURGH     CLOUDY    73  67  81 W7        29.93F
INDIANA*       MOSUNNY   79  64  61 S9        29.95F
LATROBE        MOSUNNY   81  64  57 SW9G18    29.93F
WASHINGTON CO* CLOUDY    77  64  65 W8G22     29.95F
$$

PAZ004>006-010>012-017>019-024>028-033>037-041-042-045-046-049>053-261900-
CENTRAL PENNSYLVANIA

CITY           SKY/WX    TMP DP  RH WIND       PRES   REMARKS
BRADFORD       MOSUNNY   70  57  63 VRB6      29.95F
DUBOIS         PTSUNNY   73  57  57 VRB6      29.94F
CLEARFIELD     SUNNY     72  59  63 S8        29.98F
JOHNSTOWN      SUNNY     70  61  73 S9        29.99F
ALTOONA        CLOUDY    65  59  81 SE10      30.03F
STATE COLLEGE  CLOUDY    66  57  72 S9        30.03F
WILLIAMSPORT   SUNNY     68  54  60 SE10G23   30.03F
SELINSGROVE    CLOUDY    67  57  70 S12G21    30.06F
FT INDIANTOWN  DRIZZLE   60  59  94 SE6       30.09F FOG
CAPITAL CITY   CLOUDY    67  56  67 S12       30.07F
HARRISBURG     CLOUDY    64  62  93 SE13      30.07F
YORK           CLOUDY    66  59  78 VRB7      30.07F
$$

PAZ038>040-043-044-047-048-054-055-060>062-067>071-261900-
EASTERN PENNSYLVANIA

CITY           SKY/WX    TMP DP  RH WIND       PRES   REMARKS
SCRANTON       CLOUDY    65  48  54 S9        30.09F
MOUNT POCONO   CLOUDY    61  48  62 S14G21    30.12F
ALLENTOWN      CLOUDY    69  52  54 S8G21     30.10F
QUAKERTOWN*    CLOUDY    68  54  60 S8        30.12F
READING        CLOUDY    67  49  52 S10       30.09F
LANCASTER      CLOUDY    66  56  70 S14       30.10F
COATESVILLE      N/A    N/A N/A N/A MISG        N/A
POTTSTOWN      CLOUDY    68  53  58 VRB7      30.12F
BLUE BELL      CLOUDY    68  52  56 S9        30.10F
DOYLESTOWN     CLOUDY    69  53  56 S7        30.10F
WILLOW GROVE   NOT AVBL
NORTH PHILA    CLOUDY    72  50  45 S8        30.12F
PHILADELPHIA   CLOUDY    72  49  44 S10       30.11F
$$



USA.gov is the U.S. government's official web portal to all federal, state and local government web resources and services.